Back to catalog

QIANFAN-73

AliveCommunicationsPO
NORAD 63159·PAYLOAD·🇨🇳 China

Launched Mar 11, 2025 from Wenchang Space Launch Site

Loading…

Next Passes (next 24 hours)

TLE

FreshSource: Space-Track

Epoch: Sep 14, 2026, 13:32 UTC

1 63159U 25046A   26257.56389287  .00000033  00000-0  31693-4 0  9993
2 63159  88.9650 291.3865 0016478  52.2184 308.0457 13.51025047 84652

Track QIANFAN-73 in real time with AllMySat

Download on the App Store